"startDT [UTC]","vpos","CH4 [ppm]","stdev(CH4) [ppm]","CO2 [ppm]","stdev(CO2) [ppm]","H2O [ppm]","stdev(H2O)","p_LGR [torr]","T_LGR [C]","mt1_LGR [us]","mt2_LGR [us]","T_ECpre [C]","T_EC1 [C]","T_EC2 [C]","p_inlet [hPa]","p_in [hPa]","p_out [hPa]","T_inlet [C]","RH_inlet [%]","dwpt_inlet [C]","T_vent [C]","RH_vent [%]","dwpt_vent [C]","flow_vent [l min-1]","flow_inlet [l min-1]","dwpt_sample [C]","T_room [C]"
2012-07-01 00:00:00,1.0,1.8967,0.0086,386.26,5.80,5.0,12.9,138.07,30.68,24.64,36.46,0.97,17.73,-26.68,-53,612,-933,21.6,25.8,1.1,22.0,1.8,-30.7,5.73,2.34,-28.5,28.6
2012-07-01 00:01:00,1.0,1.9059,0.0008,379.64,0.34,1.0,7.9,138.07,30.68,24.65,36.46,0.93,17.74,-26.67,-53,609,-933,21.5,25.7,1.1,22.0,1.8,-30.7,5.73,2.33,-28.6,28.7
2012-07-01 00:02:00,1.0,1.9063,0.0009,379.71,0.28,2.1,8.9,138.07,30.68,24.64,36.46,0.94,17.75,-26.68,-53,609,-933,21.6,26.1,1.3,22.0,1.8,-30.6,5.73,2.36,-28.6,28.7
2012-07-01 00:03:00,1.0,1.9063,0.0010,379.59,0.27,3.8,11.3,138.07,30.68,24.64,36.46,0.93,17.77,-26.68,-53,609,-933,21.6,26.0,1.3,22.0,1.8,-30.7,5.73,2.36,-28.5,28.7
2012-07-01 00:04:00,1.0,1.9063,0.0009,379.67,0.32,2.5,9.8,138.07,30.68,24.64,36.46,0.91,17.78,-26.68,-53,608,-933,21.6,26.3,1.5,22.0,1.8,-30.7,5.73,2.33,-28.5,28.7
2012-07-01 00:05:00,1.0,1.9060,0.0010,379.56,0.27,3.6,9.1,138.07,30.68,24.65,36.47,0.91,17.80,-26.68,-53,608,-933,21.6,25.9,1.2,22.1,1.8,-30.6,5.73,2.34,-28.5,28.7
2012-07-01 00:06:00,1.0,1.9062,0.0010,379.75,0.29,3.7,10.6,138.07,30.68,24.64,36.45,0.90,17.80,-26.68,-53,608,-933,21.7,26.0,1.3,22.1,1.8,-30.7,5.73,2.37,-28.5,28.7
2012-07-01 00:07:00,4.0,1.8610,0.0294,384.10,3.04,4.5,13.2,138.07,30.68,24.65,36.46,1.00,17.67,-26.68,-53,610,-933,21.7,25.9,1.3,22.1,1.8,-30.7,5.73,2.35,-28.5,28.7
2012-07-01 00:08:00,4.0,1.8299,0.0011,387.80,0.32,0.3,5.3,138.07,30.68,24.64,36.45,1.04,16.25,-26.69,-53,609,-933,21.8,25.6,1.2,22.2,1.8,-30.7,5.73,2.32,-28.5,28.6
2012-07-01 00:09:00,4.0,1.8298,0.0008,388.01,0.28,3.9,9.4,138.07,30.68,24.64,36.45,1.05,14.03,-26.69,-53,609,-934,21.8,25.6,1.2,22.2,1.8,-30.7,5.73,2.35,-28.5,28.8
2012-07-01 00:10:00,4.0,1.8296,0.0009,387.96,0.31,1.3,6.9,138.07,30.68,24.65,36.46,1.04,11.71,-26.69,-53,608,-933,21.8,25.6,1.2,22.2,1.8,-30.7,5.73,2.36,-28.5,28.8
2012-07-01 00:11:00,4.0,1.8301,0.0009,388.03,0.28,3.6,10.9,138.07,30.68,24.64,36.45,0.97,9.41,-26.68,-53,608,-934,21.9,25.4,1.2,22.3,1.8,-30.7,5.73,2.34,-28.5,28.7
2012-07-01 00:12:00,4.0,1.8297,0.0007,388.00,0.35,4.3,11.3,138.07,30.68,24.65,36.46,1.02,7.19,-26.67,-53,607,-933,21.9,25.6,1.3,22.3,1.8,-30.7,5.73,2.33,-28.5,28.7
2012-07-01 00:13:00,4.0,1.8297,0.0008,387.96,0.26,1.5,5.7,138.07,30.68,24.65,36.46,1.09,5.07,-26.66,-53,607,-934,21.9,25.3,1.2,22.3,1.8,-30.6,5.73,2.35,-28.5,28.8
2012-07-01 00:14:00,5.0,1.7277,0.0648,364.72,14.69,3.7,11.0,138.06,30.69,24.65,36.46,0.99,2.97,-26.64,-53,598,-934,21.9,25.4,1.2,22.3,1.8,-30.7,5.73,2.35,-28.5,28.8
2012-07-01 00:15:00,5.0,1.6594,0.0006,349.28,0.27,4.6,15.1,138.07,30.69,24.64,36.47,1.00,1.14,-26.63,-53,606,-934,21.9,25.8,1.4,22.3,1.8,-30.7,5.73,2.36,-28.5,28.8
2012-07-01 00:16:00,5.0,1.6591,0.0007,349.23,0.29,3.8,15.2,138.07,30.69,24.65,36.47,1.09,-0.69,-26.61,-53,616,-934,22.0,25.8,1.5,22.4,1.8,-30.5,5.73,2.34,-28.6,28.8
2012-07-01 00:17:00,5.0,1.6594,0.0009,349.21,0.27,2.0,9.5,138.06,30.69,24.65,36.47,1.00,-2.40,-26.60,-53,615,-934,22.0,25.5,1.3,22.4,1.8,-30.5,5.73,2.34,-28.6,28.8
2012-07-01 00:18:00,5.0,1.6592,0.0008,349.13,0.27,1.3,6.3,138.07,30.69,24.65,36.48,0.97,-4.02,-26.58,-53,619,-934,22.0,25.5,1.3,22.4,1.8,-30.6,5.73,2.36,-28.6,28.8
2012-07-01 00:19:00,5.0,1.6590,0.0009,349.14,0.26,1.6,8.1,138.07,30.69,24.65,36.48,1.06,-5.44,-26.58,-54,620,-934,22.0,25.3,1.2,22.4,1.8,-30.4,5.73,2.37,-28.6,28.8
2012-07-01 00:20:00,5.0,1.6590,0.0008,349.12,0.28,0.7,6.0,138.07,30.69,24.65,36.47,1.04,-6.45,-26.57,-54,615,-934,22.0,25.4,1.3,22.5,1.8,-30.4,5.73,2.36,-28.7,28.8
2012-07-01 00:21:00,2.0,1.7771,0.0746,375.35,16.78,3.3,11.3,138.06,30.69,24.65,36.46,0.96,-7.96,-26.56,-54,590,-934,22.1,25.7,1.5,22.5,1.8,-30.4,5.73,2.35,-28.7,28.8
2012-07-01 00:22:00,2.0,1.8556,0.0009,393.45,0.22,0.9,5.9,138.07,30.70,24.65,36.45,0.99,-9.20,-26.56,-54,591,-934,22.1,25.4,1.4,22.5,1.8,-30.5,5.73,2.34,-28.8,28.9
2012-07-01 00:23:00,2.0,1.8554,0.0007,393.68,0.28,1.0,8.2,138.06,30.70,24.65,36.46,1.06,-10.39,-26.56,-54,591,-934,22.1,25.4,1.4,22.5,1.8,-30.5,5.73,2.37,-28.8,28.8
2012-07-01 00:24:00,2.0,1.8554,0.0009,393.76,0.30,0.9,5.6,138.06,30.70,24.65,36.45,1.03,-11.48,-26.56,-54,592,-934,22.1,25.5,1.4,22.5,1.8,-30.5,5.73,2.37,-28.8,28.8
2012-07-01 00:25:00,2.0,1.8562,0.0009,393.68,0.28,1.4,6.8,138.07,30.70,24.64,36.46,0.95,-12.55,-26.56,-54,592,-934,22.2,25.7,1.6,22.5,1.8,-30.5,5.73,2.36,-28.9,28.8
2012-07-01 00:26:00,2.0,1.8558,0.0009,393.77,0.25,0.1,4.4,138.06,30.70,24.64,36.45,0.98,-13.52,-26.56,-54,592,-934,22.2,26.0,1.8,22.6,1.8,-30.4,5.73,2.35,-28.9,28.8
2012-07-01 00:27:00,2.0,1.8559,0.0008,393.68,0.30,1.0,7.1,138.06,30.70,24.65,36.46,1.06,-14.40,-26.57,-54,592,-934,22.2,25.7,1.6,22.6,1.8,-30.4,5.73,2.35,-29.0,28.8
2012-07-01 00:28:00,0.0,1.8722,0.0114,394.18,0.32,1.1,6.8,138.07,30.71,24.65,36.45,1.01,-15.29,-26.58,-54,530,-934,22.3,25.3,1.5,22.6,1.8,-30.5,5.73,2.37,-29.1,28.8
2012-07-01 00:29:00,0.0,1.8844,0.0010,394.47,0.29,0.8,5.6,138.06,30.71,24.65,36.45,0.96,-16.07,-26.58,-54,530,-934,22.3,25.2,1.4,22.7,1.8,-30.4,5.73,2.38,-29.1,28.8
2012-07-01 00:30:00,0.0,1.8843,0.0008,394.56,0.28,-0.4,2.2,138.07,30.71,24.65,36.45,1.00,-16.86,-26.59,-54,531,-934,22.3,24.9,1.3,22.7,1.8,-30.4,5.73,2.38,-29.2,28.7
2012-07-01 00:31:00,0.0,1.8845,0.0009,394.51,0.32,1.4,8.1,138.06,30.71,24.64,36.45,1.05,-17.59,-26.59,-54,531,-934,22.3,24.9,1.3,22.7,1.8,-30.4,5.73,2.37,-29.2,28.7
2012-07-01 00:32:00,0.0,1.8843,0.0008,394.27,0.31,-0.7,1.7,138.07,30.71,24.65,36.45,1.01,-18.28,-26.61,-54,531,-934,22.3,25.5,1.6,22.7,1.7,-30.5,5.73,2.37,-29.3,28.8
2012-07-01 00:33:00,0.0,1.8843,0.0010,394.56,0.37,-0.1,3.7,138.07,30.71,24.64,36.45,0.95,-18.91,-26.62,-54,531,-934,22.3,25.3,1.5,22.7,1.8,-30.4,5.73,2.36,-29.4,28.8
2012-07-01 00:34:00,0.0,1.8844,0.0009,394.39,0.33,-0.7,2.1,138.07,30.71,24.64,36.46,1.00,-19.56,-26.62,-54,531,-934,22.3,25.2,1.4,22.7,1.8,-30.3,5.73,2.37,-29.4,28.7
2012-07-01 00:35:00,0.0,1.8838,0.0011,394.51,0.31,0.1,4.6,138.06,30.71,24.65,36.45,1.06,-20.16,-26.63,-54,531,-934,22.3,25.0,1.4,22.7,1.8,-30.3,5.73,2.38,-29.5,28.8
2012-07-01 00:36:00,0.0,1.8843,0.0007,394.33,0.36,-0.5,2.8,138.06,30.71,24.65,36.46,1.00,-20.74,-26.65,-54,531,-934,22.3,25.3,1.5,22.7,1.8,-30.4,5.73,2.39,-29.5,28.8
2012-07-01 00:37:00,0.0,1.8839,0.0009,394.34,0.28,0.1,4.9,138.07,30.71,24.65,36.46,0.94,-21.28,-26.66,-54,532,-934,22.3,25.3,1.5,22.7,1.7,-30.5,5.73,2.38,-29.6,28.7
2012-07-01 00:38:00,0.0,1.8840,0.0008,394.48,0.28,-0.5,2.1,138.07,30.72,24.65,36.45,0.98,-21.78,-26.68,-54,532,-934,22.3,24.9,1.3,22.8,1.7,-30.5,5.73,2.38,-29.6,28.7
2012-07-01 00:39:00,0.0,1.8840,0.0008,394.54,0.28,-0.9,1.1,138.07,30.72,24.65,36.45,1.04,-22.25,-26.69,-54,532,-934,22.3,24.9,1.2,22.7,1.7,-30.5,5.73,2.37,-29.7,28.7
2012-07-01 00:40:00,0.0,1.8842,0.0008,394.53,0.31,-0.4,3.9,138.06,30.72,24.64,36.45,1.04,-22.69,-26.70,-54,532,-934,22.3,24.8,1.1,22.7,1.7,-30.6,5.73,2.37,-29.7,28.7
2012-07-01 00:41:00,0.0,1.8838,0.0009,394.50,0.30,-0.7,1.7,138.06,30.72,24.65,36.45,0.96,-23.11,-26.72,-54,532,-934,22.3,24.8,1.2,22.7,1.7,-30.5,5.73,2.38,-29.7,28.7
2012-07-01 00:42:00,0.0,1.8840,0.0009,394.36,0.28,-1.0,0.0,138.06,30.72,24.65,36.45,0.95,-23.50,-26.73,-54,532,-934,22.2,24.9,1.2,22.7,1.7,-30.5,5.73,2.39,-29.8,28.7
2012-07-01 00:43:00,0.0,1.8836,0.0008,394.32,0.33,0.4,5.3,138.06,30.72,24.65,36.45,1.01,-23.87,-26.75,-54,532,-934,22.2,25.1,1.3,22.7,1.7,-30.5,5.73,2.39,-29.8,28.7
2012-07-01 00:44:00,0.0,1.8838,0.0008,394.42,0.35,-0.6,2.5,138.06,30.72,24.64,36.45,1.05,-24.22,-26.76,-55,532,-934,22.2,25.0,1.2,22.7,1.7,-30.6,5.73,2.39,-29.8,28.7
2012-07-01 00:45:00,0.0,1.8841,0.0008,394.50,0.29,-0.9,1.1,138.06,30.72,24.65,36.45,1.00,-24.55,-26.77,-54,532,-934,22.2,24.8,1.1,22.7,1.7,-30.6,5.73,2.38,-29.8,28.6
2012-07-01 00:46:00,0.0,1.8841,0.0010,394.54,0.29,-0.7,1.6,138.07,30.72,24.64,36.45,0.94,-24.86,-26.78,-55,532,-934,22.2,24.8,1.1,22.7,1.7,-30.6,5.73,2.38,-29.8,28.6
2012-07-01 00:47:00,0.0,1.8841,0.0009,394.58,0.30,-1.0,0.4,138.06,30.72,24.64,36.45,0.96,-25.15,-26.80,-54,532,-934,22.1,24.8,1.1,22.7,1.7,-30.6,5.73,2.37,-29.9,28.6
2012-07-01 00:48:00,0.0,1.8844,0.0009,394.31,0.35,-0.9,0.7,138.06,30.72,24.64,36.45,1.02,-25.41,-26.80,-54,532,-934,22.1,25.1,1.2,22.7,1.7,-30.7,5.73,2.38,-29.9,28.6
2012-07-01 00:49:00,0.0,1.8837,0.0008,394.48,0.37,-1.0,0.3,138.07,30.73,24.65,36.45,1.04,-25.66,-26.82,-54,532,-934,22.1,24.9,1.1,22.7,1.7,-30.8,5.73,2.38,-29.9,28.6
2012-07-01 00:50:00,0.0,1.8841,0.0010,394.07,0.32,-1.0,0.0,138.06,30.73,24.64,36.46,0.99,-25.89,-26.83,-54,532,-934,22.1,25.3,1.3,22.7,1.7,-30.7,5.73,2.39,-29.9,28.6
2012-07-01 00:51:00,0.0,1.8840,0.0008,394.47,0.26,-1.0,0.0,138.07,30.72,24.65,36.45,0.94,-26.11,-26.83,-55,532,-934,22.1,25.1,1.2,22.7,1.7,-30.8,5.73,2.39,-29.9,28.6
2012-07-01 00:52:00,0.0,1.8840,0.0009,394.19,0.28,-0.7,2.5,138.06,30.72,24.65,36.45,0.96,-26.33,-26.85,-55,532,-934,22.1,25.5,1.4,22.6,1.7,-30.8,5.73,2.40,-29.9,28.5
2012-07-01 00:53:00,0.0,1.8842,0.0009,394.23,0.32,-0.5,4.1,138.07,30.73,24.65,36.45,1.01,-26.52,-26.86,-55,532,-934,22.1,25.6,1.4,22.6,1.7,-30.8,5.73,2.39,-30.0,28.5
2012-07-01 00:54:00,0.0,1.8838,0.0008,394.46,0.31,-1.0,0.0,138.07,30.73,24.64,36.46,1.05,-26.71,-26.87,-55,532,-934,22.1,25.0,1.1,22.6,1.7,-30.8,5.73,2.39,-30.0,28.5
2012-07-01 00:55:00,0.0,1.8840,0.0009,394.31,0.26,-0.8,1.5,138.07,30.73,24.65,36.45,0.95,-26.77,-26.87,-54,532,-934,22.0,25.5,1.4,22.6,1.7,-30.8,5.73,2.38,-30.0,28.5
2012-07-01 00:56:00,0.0,1.8841,0.0009,394.09,0.30,-0.5,3.1,138.07,30.73,24.64,36.45,1.03,-26.45,-26.88,-54,532,-934,22.0,25.5,1.3,22.6,1.7,-30.8,5.73,2.38,-29.9,28.5
2012-07-01 00:57:00,0.0,1.8838,0.0009,394.34,0.26,-0.7,2.3,138.07,30.73,24.64,36.45,0.97,-26.53,-26.89,-54,532,-934,22.0,25.3,1.2,22.6,1.7,-30.8,5.73,2.38,-30.0,28.5
2012-07-01 00:58:00,0.0,1.8840,0.0009,394.34,0.28,-0.8,1.2,138.07,30.74,24.65,36.45,0.94,-26.68,-26.89,-54,532,-934,22.0,25.2,1.1,22.5,1.7,-30.8,5.73,2.39,-30.0,28.5
2012-07-01 00:59:00,0.0,1.8840,0.0009,394.36,0.31,-1.0,0.0,138.06,30.74,24.65,36.45,0.97,-26.85,-26.91,-54,532,-934,22.0,25.4,1.3,22.5,1.7,-30.8,5.73,2.39,-30.0,28.4
2012-07-01 01:00:00,0.0,1.8838,0.0010,394.16,0.29,-0.6,2.8,138.06,30.74,24.65,36.45,1.01,-26.60,-26.91,-54,532,-934,21.9,25.6,1.3,22.5,1.7,-30.8,5.73,2.40,-30.0,28.4
2012-07-01 01:01:00,0.0,1.8844,0.0009,394.17,0.32,-0.9,0.7,138.07,30.74,24.65,36.46,1.03,-26.51,-26.92,-54,532,-934,21.9,25.7,1.4,22.5,1.7,-30.8,5.73,2.40,-30.0,28.4
2012-07-01 01:02:00,0.0,1.8848,0.0011,394.00,0.35,-1.0,0.0,138.07,30.74,24.64,36.46,1.04,-26.64,-26.92,-54,531,-934,21.9,25.9,1.5,22.5,1.7,-30.9,5.73,2.40,-30.0,28.4
2012-07-01 01:03:00,0.0,1.8842,0.0009,394.02,0.31,-0.9,0.7,138.07,30.74,24.65,36.45,0.97,-26.80,-26.93,-54,532,-934,21.9,26.1,1.6,22.5,1.7,-30.8,5.73,2.39,-30.0,28.4
2012-07-01 01:04:00,0.0,1.8841,0.0011,394.22,0.34,-0.4,4.9,138.07,30.74,24.65,36.45,0.99,-26.81,-26.94,-54,531,-934,21.9,25.9,1.5,22.4,1.7,-30.9,5.73,2.39,-30.0,28.4
2012-07-01 01:05:00,0.0,1.8838,0.0010,394.32,0.31,-0.8,0.8,138.07,30.74,24.65,36.45,0.95,-26.51,-26.94,-54,531,-934,21.9,25.7,1.4,22.4,1.7,-30.9,5.73,2.39,-30.0,28.4
2012-07-01 01:06:00,0.0,1.8840,0.0009,394.23,0.25,-1.0,0.0,138.07,30.74,24.64,36.45,0.90,-26.61,-26.78,-54,531,-934,21.9,25.8,1.4,22.4,1.7,-30.9,5.73,2.38,-30.0,28.4
2012-07-01 01:07:00,0.0,1.8839,0.0009,394.29,0.30,-0.5,4.1,138.07,30.74,24.65,36.46,0.98,-26.78,-25.39,-54,531,-934,21.9,25.7,1.3,22.4,1.7,-30.8,5.73,2.39,-30.0,28.4
2012-07-01 01:08:00,0.0,1.8836,0.0009,394.29,0.28,-1.0,0.0,138.07,30.74,24.65,36.45,0.90,-26.89,-23.44,-54,531,-934,21.9,25.6,1.3,22.4,1.9,-29.9,5.73,2.40,-30.0,28.4
2012-07-01 01:09:00,0.0,1.8834,0.0008,394.18,0.34,-0.3,3.7,138.07,30.74,24.65,36.46,0.78,-26.95,-21.47,-54,531,-934,21.9,25.6,1.3,22.4,2.0,-29.0,5.73,2.40,-30.0,28.3
2012-07-01 01:10:00,0.0,1.8836,0.0008,393.93,0.31,-1.0,0.0,138.07,30.74,24.65,36.46,0.87,-26.98,-19.55,-54,531,-934,21.9,26.1,1.5,22.4,2.1,-28.5,5.73,2.40,-29.9,28.4
2012-07-01 01:11:00,0.0,1.8837,0.0009,393.96,0.31,-1.0,0.0,138.07,30.74,24.65,36.45,0.92,-26.98,-17.72,-54,531,-934,21.9,26.1,1.5,22.4,2.2,-28.4,5.73,2.40,-29.9,28.4
2012-07-01 01:12:00,0.0,1.8836,0.0011,394.18,0.31,-1.0,0.0,138.07,30.73,24.65,36.45,0.95,-26.97,-15.99,-54,531,-934,21.9,25.7,1.3,22.4,2.2,-28.3,5.73,2.40,-29.9,28.3
2012-07-01 01:13:00,0.0,1.8838,0.0008,394.32,0.28,-0.7,1.4,138.07,30.73,24.64,36.46,0.87,-26.95,-14.34,-54,531,-934,21.9,25.5,1.2,22.4,2.2,-28.5,5.73,2.38,-29.9,28.3
2012-07-01 01:14:00,0.0,1.8838,0.0010,394.08,0.34,-0.3,4.0,138.07,30.73,24.64,36.45,0.79,-26.93,-12.79,-54,531,-933,21.9,25.7,1.3,22.4,2.1,-28.6,5.73,2.38,-29.9,28.3
2012-07-01 01:15:00,0.0,1.8833,0.0009,393.98,0.26,-0.4,3.3,138.06,30.73,24.65,36.45,0.85,-26.90,-11.31,-54,531,-934,21.9,26.0,1.5,22.4,2.1,-28.6,5.73,2.38,-29.9,28.3
2012-07-01 01:16:00,0.0,1.8832,0.0009,394.23,0.28,-0.8,1.1,138.07,30.74,24.65,36.45,0.92,-26.88,-9.91,-54,531,-933,21.9,25.6,1.3,22.4,2.1,-28.8,5.73,2.40,-29.8,28.3
2012-07-01 01:17:00,0.0,1.8835,0.0009,394.14,0.33,-0.9,1.0,138.06,30.73,24.65,36.45,0.95,-26.85,-8.59,-54,531,-934,21.9,25.7,1.4,22.4,2.1,-28.9,5.73,2.40,-29.8,28.4
2012-07-01 01:18:00,0.0,1.8833,0.0009,394.16,0.34,-0.9,0.4,138.07,30.73,24.65,36.45,0.91,-26.82,-7.33,-54,531,-934,21.9,25.5,1.3,22.4,2.1,-28.9,5.73,2.39,-29.8,28.3
2012-07-01 01:19:00,0.0,1.8834,0.0009,394.22,0.34,-0.7,1.9,138.07,30.73,24.64,36.45,0.82,-26.79,-6.14,-54,531,-933,21.9,25.4,1.2,22.4,2.0,-29.0,5.73,2.38,-29.8,28.3
2012-07-01 01:20:00,0.0,1.8834,0.0010,394.00,0.32,-0.4,3.4,138.07,30.74,24.65,36.45,0.85,-26.77,-5.00,-54,531,-934,21.9,25.7,1.4,22.4,2.0,-29.1,5.73,2.37,-29.7,28.3
2012-07-01 01:21:00,0.0,1.8836,0.0009,394.26,0.31,-0.6,3.3,138.07,30.74,24.64,36.45,0.89,-26.74,-3.92,-54,531,-934,21.9,25.4,1.2,22.4,2.0,-29.2,5.73,2.38,-29.7,28.3
2012-07-01 01:22:00,0.0,1.8835,0.0008,394.04,0.32,-0.9,0.5,138.07,30.74,24.64,36.46,0.92,-26.71,-2.89,-54,531,-933,21.9,25.5,1.2,22.4,2.0,-29.3,5.73,2.39,-29.7,28.3
2012-07-01 01:23:00,0.0,1.8832,0.0007,394.05,0.28,-0.2,5.0,138.07,30.74,24.65,36.46,0.95,-26.69,-1.92,-54,531,-934,21.9,25.4,1.2,22.4,2.0,-29.3,5.73,2.39,-29.7,28.3
2012-07-01 01:24:00,0.0,1.8829,0.0009,394.15,0.29,-0.8,1.2,138.07,30.74,24.65,36.45,0.93,-26.67,-0.99,-54,531,-933,21.9,25.3,1.2,22.4,2.0,-29.3,5.73,2.38,-29.7,28.3
2012-07-01 01:25:00,0.0,1.8832,0.0009,394.26,0.24,0.6,6.2,138.07,30.74,24.65,36.45,0.86,-26.64,-0.09,-54,531,-933,21.9,25.1,1.0,22.4,2.0,-29.4,5.73,2.37,-29.6,28.3
2012-07-01 01:26:00,0.0,1.8834,0.0008,394.23,0.28,-0.4,2.9,138.06,30.75,24.65,36.45,0.85,-26.62,0.74,-54,531,-934,22.0,25.1,1.1,22.4,2.0,-29.5,5.73,2.37,-29.6,28.3
2012-07-01 01:27:00,0.0,1.8837,0.0008,394.15,0.27,-0.7,1.5,138.07,30.75,24.64,36.45,0.89,-26.60,1.54,-54,531,-933,22.0,25.3,1.2,22.5,2.0,-29.5,5.73,2.39,-29.6,28.3
2012-07-01 01:28:00,0.0,1.8829,0.0008,393.88,0.29,-1.0,0.2,138.07,30.75,24.65,36.45,0.90,-26.57,2.28,-54,531,-934,22.0,25.4,1.3,22.4,2.0,-29.5,5.73,2.39,-29.6,28.4
2012-07-01 01:29:00,0.0,1.8834,0.0008,393.94,0.24,0.1,4.7,138.06,30.75,24.65,36.45,0.92,-26.54,2.88,-54,531,-934,22.0,25.5,1.3,22.5,1.9,-29.6,5.73,2.37,-29.6,28.4
2012-07-01 01:30:00,0.0,1.8837,0.0011,393.88,0.27,-0.4,3.0,138.07,30.75,24.64,36.45,0.95,-26.53,3.20,-54,531,-933,22.0,25.5,1.3,22.5,1.9,-29.6,5.73,2.36,-29.5,28.4
2012-07-01 01:31:00,0.0,1.8833,0.0008,394.16,0.31,-0.9,1.0,138.06,30.75,24.64,36.45,0.96,-26.50,3.44,-54,531,-934,22.0,25.1,1.1,22.5,1.9,-29.6,5.73,2.38,-29.5,28.4
2012-07-01 01:32:00,0.0,1.8830,0.0008,394.08,0.30,-0.5,2.0,138.06,30.75,24.64,36.45,0.91,-26.49,3.84,-54,531,-933,22.0,25.1,1.1,22.5,1.9,-29.7,5.73,2.39,-29.5,28.4
2012-07-01 01:33:00,0.0,1.8823,0.0009,394.11,0.31,-0.0,4.7,138.06,30.75,24.65,36.45,0.85,-26.47,4.39,-54,531,-933,22.0,25.1,1.1,22.5,1.9,-29.7,5.73,2.38,-29.5,28.4
2012-07-01 01:34:00,0.0,1.8829,0.0010,393.89,0.30,-0.2,3.0,138.06,30.75,24.65,36.45,0.89,-26.45,4.97,-54,531,-934,22.0,25.4,1.3,22.5,1.9,-29.7,5.73,2.36,-29.5,28.4
2012-07-01 01:35:00,0.0,1.8835,0.0012,393.92,0.25,0.7,5.7,138.06,30.75,24.64,36.45,0.89,-26.43,5.52,-54,531,-933,22.0,25.4,1.3,22.5,1.9,-29.7,5.73,2.37,-29.4,28.4
2012-07-01 01:36:00,0.0,1.8826,0.0007,393.99,0.30,-0.5,1.9,138.06,30.75,24.65,36.46,0.90,-26.41,6.05,-54,531,-933,22.0,25.3,1.2,22.5,1.9,-29.7,5.73,2.38,-29.4,28.4
2012-07-01 01:37:00,0.0,1.8832,0.0010,393.91,0.31,-0.8,1.1,138.06,30.75,24.64,36.45,0.92,-26.40,6.55,-54,531,-934,22.0,25.5,1.4,22.5,1.9,-29.7,5.73,2.38,-29.4,28.4
2012-07-01 01:38:00,0.0,1.8832,0.0009,393.66,0.27,0.1,6.0,138.06,30.75,24.65,36.45,0.94,-26.37,7.05,-54,531,-933,22.0,25.8,1.5,22.5,1.9,-29.8,5.73,2.37,-29.4,28.4
2012-07-01 01:39:00,0.0,1.8834,0.0009,393.72,0.33,0.1,4.2,138.06,30.75,24.64,36.45,0.95,-26.36,7.53,-54,531,-934,22.0,25.9,1.5,22.5,1.9,-29.8,5.73,2.35,-29.4,28.4
2012-07-01 01:40:00,0.0,1.8835,0.0009,393.86,0.31,-0.1,4.0,138.06,30.75,24.64,36.45,0.93,-26.34,7.96,-54,531,-933,22.0,26.0,1.6,22.5,1.9,-29.7,5.73,2.37,-29.4,28.4
2012-07-01 01:41:00,0.0,1.8835,0.0009,393.68,0.35,1.3,8.2,138.06,30.75,24.64,36.46,0.90,-26.33,8.38,-54,531,-933,22.0,25.9,1.6,22.5,1.9,-29.7,5.73,2.38,-29.3,28.4
2012-07-01 01:42:00,0.0,1.8835,0.0008,393.72,0.32,-0.1,3.7,138.06,30.75,24.65,36.46,0.86,-26.31,8.79,-54,530,-933,22.0,25.8,1.5,22.5,1.9,-29.8,5.73,2.37,-29.3,28.5
2012-07-01 01:43:00,0.0,1.8837,0.0008,393.69,0.28,-0.2,3.3,138.06,30.75,24.64,36.45,0.87,-26.30,9.17,-54,531,-933,22.1,25.9,1.6,22.5,1.9,-29.7,5.73,2.35,-29.3,28.4
2012-07-01 01:44:00,0.0,1.8835,0.0011,393.79,0.28,1.5,9.2,138.06,30.75,24.64,36.45,0.90,-26.28,9.54,-54,531,-934,22.1,25.7,1.5,22.5,1.9,-29.7,5.73,2.36,-29.3,28.5
2012-07-01 01:45:00,0.0,1.8833,0.0010,393.88,0.34,-0.2,4.0,138.06,30.75,24.64,36.46,0.92,-26.27,9.91,-54,531,-933,22.1,25.4,1.3,22.5,1.9,-29.7,5.73,2.38,-29.3,28.5
2012-07-01 01:46:00,0.0,1.8834,0.0011,393.77,0.27,-0.4,4.0,138.06,30.76,24.64,36.45,0.92,-26.25,10.26,-54,531,-934,22.0,25.7,1.5,22.5,1.9,-29.7,5.73,2.38,-29.3,28.4
2012-07-01 01:47:00,0.0,1.8835,0.0011,393.47,0.34,-0.3,2.8,138.07,30.76,24.65,36.46,0.93,-26.24,10.59,-54,531,-933,22.1,26.4,1.8,22.5,1.9,-29.7,5.73,2.36,-29.3,28.5
2012-07-01 01:48:00,0.0,1.8837,0.0009,393.74,0.30,1.5,7.7,138.06,30.76,24.64,36.45,0.94,-26.23,10.93,-54,531,-933,22.0,26.3,1.8,22.5,1.9,-29.7,5.73,2.35,-29.2,28.5
2012-07-01 01:49:00,0.0,1.8835,0.0009,393.80,0.31,-0.1,5.4,138.06,30.75,24.64,36.45,0.95,-26.22,11.25,-54,531,-933,22.1,26.1,1.7,22.5,1.9,-29.7,5.73,2.37,-29.2,28.4
2012-07-01 01:50:00,0.0,1.8833,0.0007,393.63,0.26,0.3,5.7,138.06,30.76,24.64,36.45,0.93,-26.21,11.57,-54,531,-933,22.0,26.4,1.8,22.5,1.9,-29.8,5.73,2.38,-29.2,28.5
2012-07-01 01:51:00,0.0,1.8835,0.0007,393.79,0.29,-0.1,3.8,138.06,30.76,24.64,36.45,0.90,-26.20,11.88,-54,531,-934,22.1,26.1,1.7,22.5,1.9,-29.7,5.73,2.36,-29.2,28.5
2012-07-01 01:52:00,0.0,1.8834,0.0009,393.89,0.29,1.4,6.3,138.06,30.76,24.65,36.45,0.89,-26.19,12.17,-54,531,-933,22.1,25.9,1.6,22.5,1.9,-29.7,5.73,2.35,-29.2,28.5
2012-07-01 01:53:00,0.0,1.8829,0.0009,393.91,0.27,-0.7,1.4,138.06,30.76,24.65,36.45,0.89,-26.18,12.45,-54,531,-933,22.1,25.7,1.5,22.5,1.9,-29.7,5.73,2.36,-29.1,28.5
2012-07-01 01:54:00,0.0,1.8834,0.0008,393.71,0.33,-0.1,3.1,138.06,30.76,24.64,36.45,0.92,-26.17,12.72,-54,531,-933,22.1,25.9,1.7,22.5,1.9,-29.7,5.73,2.38,-29.1,28.5
2012-07-01 01:55:00,0.0,1.8837,0.0008,393.20,0.34,1.0,6.7,138.06,30.76,24.65,36.46,0.90,-26.16,12.98,-54,531,-934,22.1,26.8,2.1,22.5,1.9,-29.7,5.73,2.36,-29.1,28.5
2012-07-01 01:56:00,0.0,1.8840,0.0008,393.29,0.37,2.5,11.6,138.06,30.76,24.65,36.45,0.92,-26.15,13.24,-54,531,-933,22.1,26.5,2.0,22.5,1.9,-29.7,5.73,2.34,-29.1,28.5
2012-07-01 01:57:00,0.0,1.8836,0.0010,393.63,0.32,0.8,7.9,138.06,30.76,24.64,36.45,0.93,-26.14,13.47,-54,531,-933,22.1,26.0,1.7,22.6,1.9,-29.7,5.73,2.36,-29.1,28.5
2012-07-01 01:58:00,0.0,1.8832,0.0008,393.79,0.28,2.2,10.2,138.07,30.76,24.64,36.45,0.94,-26.14,13.70,-54,531,-933,22.1,25.5,1.5,22.6,1.9,-29.7,5.73,2.38,-29.1,28.5
2012-07-01 01:59:00,0.0,1.8835,0.0009,393.58,0.25,2.3,9.5,138.06,30.76,24.65,36.46,0.95,-26.13,13.92,-54,531,-934,22.1,25.7,1.6,22.6,1.9,-29.6,5.73,2.36,-29.1,28.5
2012-07-01 02:00:00,0.0,1.8834,0.0011,393.58,0.31,0.8,5.6,138.07,30.77,24.65,36.46,0.94,-26.12,14.13,-54,531,-933,22.1,25.8,1.6,22.6,1.9,-29.7,5.73,2.34,-29.1,28.5
2012-07-01 02:01:00,0.0,1.8834,0.0008,393.60,0.28,0.3,4.3,138.06,30.77,24.65,36.45,0.93,-26.12,14.33,-54,531,-934,22.1,25.8,1.6,22.6,1.9,-29.6,5.73,2.36,-29.0,28.5
2012-07-01 02:02:00,0.0,1.8834,0.0010,393.21,0.31,1.5,6.6,138.06,30.77,24.65,36.45,0.91,-26.11,14.53,-54,531,-933,22.2,26.5,2.0,22.6,1.9,-29.6,5.73,2.38,-29.0,28.5
2012-07-01 02:03:00,0.0,1.8831,0.0008,393.58,0.28,-0.2,4.0,138.06,30.77,24.65,36.45,0.90,-26.10,14.71,-54,531,-933,22.2,26.3,1.9,22.6,1.9,-29.7,5.73,2.36,-29.0,28.5
2012-07-01 02:04:00,0.0,1.8836,0.0009,393.75,0.28,1.0,6.5,138.06,30.77,24.64,36.44,0.89,-26.10,14.89,-54,531,-933,22.2,25.9,1.7,22.6,1.9,-29.6,5.73,2.34,-29.0,28.5
2012-07-01 02:05:00,0.0,1.8831,0.0008,393.49,0.29,0.9,5.3,138.06,30.77,24.65,36.46,0.89,-26.09,15.05,-54,531,-933,22.2,26.1,1.8,22.7,1.9,-29.6,5.73,2.36,-29.0,28.5
2012-07-01 02:06:00,0.0,1.8833,0.0009,393.67,0.29,1.2,6.2,138.06,30.77,24.64,36.45,0.91,-26.08,15.21,-54,531,-933,22.2,26.0,1.8,22.7,1.9,-29.6,5.73,2.38,-29.0,28.5
2012-07-01 02:07:00,0.0,1.8831,0.0007,393.62,0.31,2.6,10.1,138.06,30.77,24.65,36.45,0.92,-26.08,15.37,-54,531,-933,22.2,26.3,1.9,22.6,1.9,-29.7,5.73,2.35,-29.0,28.5
2012-07-01 02:08:00,0.0,1.8825,0.0011,393.43,0.29,2.6,11.3,138.06,30.77,24.65,36.46,0.92,-26.07,15.52,-54,531,-933,22.2,26.4,2.0,22.7,1.9,-29.6,5.73,2.34,-28.9,28.5
2012-07-01 02:09:00,0.0,1.8830,0.0008,393.55,0.29,2.8,9.2,138.06,30.78,24.64,36.46,0.93,-26.06,15.66,-54,531,-933,22.2,26.3,2.0,22.7,1.9,-29.6,5.73,2.37,-28.9,28.5
2012-07-01 02:10:00,0.0,1.8833,0.0010,393.46,0.30,3.0,11.2,138.06,30.78,24.64,36.45,0.94,-26.06,15.80,-54,531,-933,22.2,26.4,2.0,22.7,1.9,-29.6,5.73,2.38,-28.9,28.6
2012-07-01 02:11:00,0.0,1.8827,0.0010,393.51,0.31,2.1,8.6,138.06,30.78,24.65,36.45,0.94,-26.06,15.93,-54,531,-933,22.2,26.2,1.9,22.7,1.9,-29.6,5.73,2.35,-28.9,28.5
2012-07-01 02:12:00,0.0,1.8827,0.0008,393.80,0.33,1.6,8.9,138.06,30.78,24.65,36.45,0.94,-26.05,16.05,-54,531,-933,22.3,25.8,1.7,22.7,1.9,-29.6,5.73,2.34,-28.9,28.6
2012-07-01 02:13:00,0.0,1.8827,0.0010,393.72,0.29,2.0,8.5,138.07,30.78,24.64,36.45,0.95,-26.05,16.16,-54,531,-933,22.3,26.0,1.8,22.7,1.9,-29.6,5.73,2.37,-28.9,28.5
2012-07-01 02:14:00,0.0,1.8829,0.0008,393.60,0.29,1.5,6.8,138.06,30.78,24.64,36.45,0.93,-26.04,16.28,-54,531,-933,22.3,26.2,1.9,22.7,1.9,-29.6,5.73,2.38,-28.9,28.6
2012-07-01 02:15:00,0.0,1.8827,0.0010,393.88,0.35,1.5,7.5,138.06,30.78,24.64,36.45,0.93,-26.04,16.39,-54,531,-934,22.3,25.8,1.7,22.7,1.9,-29.6,5.73,2.35,-28.9,28.6
2012-07-01 02:16:00,0.0,1.8820,0.0008,393.94,0.28,2.7,8.5,138.06,30.78,24.65,36.45,0.89,-26.04,16.49,-54,531,-933,22.3,25.6,1.6,22.7,1.9,-29.7,5.73,2.34,-28.9,28.6
2012-07-01 02:17:00,0.0,1.8822,0.0009,393.72,0.30,2.8,9.9,138.06,30.79,24.64,36.46,0.89,-26.04,16.59,-54,532,-934,22.3,26.0,1.8,22.7,1.9,-29.7,5.73,2.37,-28.9,28.6
2012-07-01 02:18:00,0.0,1.8822,0.0010,393.92,0.36,2.3,8.2,138.06,30.79,24.65,36.45,0.89,-26.03,16.69,-54,532,-933,22.2,25.6,1.6,22.7,1.9,-29.7,5.73,2.38,-28.9,28.6
2012-07-01 02:19:00,0.0,1.8819,0.0009,393.78,0.35,4.5,9.9,138.06,30.79,24.65,36.45,0.90,-26.03,16.78,-54,532,-933,22.3,25.7,1.6,22.7,1.9,-29.8,5.73,2.36,-28.9,28.6
2012-07-01 02:20:00,0.0,1.8823,0.0009,393.63,0.28,1.6,10.8,138.06,30.79,24.65,36.45,0.91,-26.03,16.86,-54,531,-933,22.3,25.9,1.8,22.7,1.9,-29.8,5.73,2.34,-28.9,28.6
2012-07-01 02:21:00,0.0,1.8819,0.0010,393.97,0.29,1.2,5.6,138.06,30.79,24.65,36.45,0.93,-26.03,16.94,-54,532,-933,22.3,25.3,1.4,22.7,1.9,-29.7,5.73,2.36,-28.9,28.6
2012-07-01 02:22:00,0.0,1.8821,0.0009,393.96,0.31,2.0,8.1,138.06,30.79,24.65,36.45,0.92,-26.02,17.03,-54,532,-933,22.2,25.3,1.5,22.7,1.9,-29.8,5.73,2.38,-28.9,28.6